Location: Eastview
(35.0756°N, 88.5453°W)
Time: 23:17:32
(UTC+00:00)

Cosmos 1666 Rocket - Pass Details

Date: 22 November 2019
Orbit: 603 x 634 km, 82.5° (Epoch: 08 December)

Event Time Altitude Azimuth Distance (km) Brightness Sun altitude
Rises 23:14:30 0° 353° (N) 2,873 6.8 -6.4°
Reaches altitude 10° 23:16:44 10° 354° (N) 1,961 6.0 -6.9°
Maximum altitude 23:21:04 88° 83° (E) 610 3.5 -7.7°
Drops below altitude 10° 23:25:22 10° 174° (S) 1,939 6.3 -8.5°
Sets 23:27:33 0° 174° (S) 2,838 7.1 -9.0°
